loading
|

THOR AGENA B DEB, 510

Orbit data source: Space-Track

THOR AGENA B DEB, 510 is space debris in LEO originally from a launch on Sat, 29 Sep 1962 UTC launched from the Air Force Western Test Range (AFWTR). Debris objects in space refer to the collection of defunct objects orbiting the Earth. Examples of debris include non-operational satellites, rocket bodies, and fragments generated from explosions, collisions, or faulty payload assembly.

Loading next visibility...
Loading greatness...
THOR AGENA B DEB details
Identifier
510, 1962-049C
Orbit
LEO
Last TLE update1 day ago
Origin
Flag of USDRTE (US)
ManufacturerUnknown
Mission statusUnknown
MissionUnknown
Bus & MotorUnknown
MassUnknown
Launch date (UTC)
1962-09-29 (62 years ago)
Launch vehicleUnknown
Launch site
Air Force Western Test Range (AFWTR)
Object type
Payload
Rocket body
Debris
Radar Cross SectionSmall (<0.1 m²)

Expand to show TLE details & history

TLE from 1 day ago
0 THOR AGENA B DEB
1 00510U 62049C   24250.44918998  .00000210  00000-0  22924-3 0  9997
2 00510  80.5107 244.8351 0015157 333.1705 152.3086 13.69931986 93830
Epoch: 2024-09-06T10:46Z
Definitive object data (Epoch: 2024-09-06T10:46:50.014Z)
Latitude53.45648°
Longitude-95.86049°
Altitude1,018.396 km
Speed7.343 km/s
True Right ascension03h 27m 28s
True Declination53° 17' 51"
Sunlit
Object was in daylight at TLE epoch
Predictive object data (real-time)
Latitude-35.82942°
Longitude-77.24089°
Altitude1,017.769 km
Speed7.34 km/s
Apparent Right ascension01h 30m 42s
Apparent Declination-54° 01' 01"
Sunlit
Object is in daylight
Predictive observer data (real-time)
Local Sidereal Time09:09:50
Azimuth229.068° WSW
Elevation-45.083°
Doppler factor1
Orbital elements
Apogee1,008.258 km
Perigee985.901 km
Semi-major axis7,375.216 km
Eccentricity0.0015157
Inclination80.5107°
RAAN244.8351°
Arg. of periapsis333.1705°
True anomaly152.38918°
Mean anomaly152.3086°
Eccentric anomaly152.3489°
Mean motion3.42674 °/min
BSTAR0.00022924
Period105.06 mins
No data available
Other satellites on launch #49 in the year 1962 (1962-09-29 UTC)

THOR AGENA B DEB Visibility forecast

Observer location: 39.9160978°, -105.1181434

THOR AGENA B DEB is not visible in the next 10 days
Span
Click to sort rows by Start time (UTC) header in descending order
Start Az.
Max El. time (UTC)
Max El. Az.
Max El.
End time (UTC)
End Az.